Date String (YYYY-MM-DD hh:mm:ss) UTC,Instrument flags,absolute air pressure of the measurement (hPa),sample flow rate (lpm),inlet stack bypass flow (lpm),air temperature of the measurement (°C),ambient temperature measured by the external sensor (°C),aerosol sample conditioner tube jacket temperature (°C),OPC LED temperature (°C),internal box temperature (°C),relative humidity of the measurement (%),span deviation,mass concentration of particles derived from Lorenz-Mie calculation of OPC scattering (μg/m³),mass concentration of particles derived from Lorenz-Mie calculation of OPC scattering (μg/m³),mass concentration of particles derived from Lorenz-Mie calculation of OPC scattering (μg/m³)
DateTimeUTC,F1_M11,P_M11,Q1_M11,Q2_M11,T1_M11,T2_M11,T3_M11,T4_M11,T5_M11,U1_M11,ZSPAN_M11,X0_M11,X2_M11,X1_M11
2023-11-15 02:00:00,SystemResetWarning,0831.1,5.00,000.00,028.0,026.8,000.0,036.3,029.3,6.1,0000.0,0002.80,0001.99,0001.60
2023-11-15 02:01:00,SystemResetWarning,0831.2,5.00,000.00,027.9,026.8,000.0,036.3,029.3,6.1,0000.0,0002.80,0002.00,0001.60
2023-11-15 02:02:00,SystemResetWarning,0831.2,5.00,000.00,027.9,026.8,000.0,036.3,029.3,6.1,0000.0,0002.68,0001.95,0001.61
2023-11-15 02:03:00,SystemResetWarning,0831.1,5.00,000.00,027.9,026.8,000.0,036.3,029.3,6.1,0000.0,0002.66,0001.95,0001.63
2023-11-15 02:04:00,SystemResetWarning,0831.2,5.00,000.00,027.9,026.8,000.0,036.3,029.3,6.1,0000.0,0002.73,0001.98,0001.64
2023-11-15 02:05:00,SystemResetWarning,0831.2,5.00,000.00,027.9,026.8,000.0,036.3,029.3,6.1,0000.0,0002.72,0002.00,0001.65
2023-11-15 02:06:00,SystemResetWarning,0831.1,5.00,000.00,027.9,026.8,000.0,036.3,029.3,6.1,0000.0,0002.66,0002.00,0001.66
2023-11-15 02:07:00,SystemResetWarning,0831.2,5.00,000.00,027.9,026.8,000.0,036.3,029.3,6.1,0000.0,0002.75,0002.06,0001.70
2023-11-15 02:08:00,SystemResetWarning,0831.3,5.00,000.00,027.9,026.8,000.0,036.3,029.3,6.2,0000.0,0002.71,0002.07,0001.73
2023-11-15 02:09:00,SystemResetWarning,0831.3,5.00,000.00,027.9,026.8,000.0,036.3,029.3,6.3,0000.0,0002.77,0002.09,0001.77
2023-11-15 02:10:00,SystemResetWarning,0831.2,5.00,000.00,027.9,026.8,000.0,036.3,029.3,6.3,0000.0,0002.80,0002.09,0001.78
2023-11-15 02:11:00,SystemResetWarning,0831.2,5.00,000.00,027.9,026.8,000.0,036.3,029.3,6.3,0000.0,0002.66,0002.05,0001.79
2023-11-15 02:12:00,SystemResetWarning,0831.2,4.99,000.00,027.9,026.7,000.0,036.3,029.3,6.2,0000.0,0002.74,0002.07,0001.81
2023-11-15 02:13:00,SystemResetWarning,0831.3,4.99,000.00,027.9,026.7,000.0,036.3,029.3,6.2,0000.0,0002.84,0002.10,0001.82
2023-11-15 02:14:00,SystemResetWarning,0831.3,5.00,000.00,027.9,026.7,000.0,036.3,029.3,6.2,0000.0,0003.01,0002.14,0001.82
2023-11-15 02:15:00,SystemResetWarning,0831.3,5.00,000.00,027.9,026.7,000.0,036.3,029.3,6.2,0000.0,0002.93,0002.11,0001.81
2023-11-15 02:16:00,SystemResetWarning,0831.3,5.00,000.00,027.9,026.7,000.0,036.3,029.3,6.2,0000.0,0002.89,0002.08,0001.79
2023-11-15 02:17:00,SystemResetWarning,0831.3,5.00,000.00,027.9,026.7,000.0,036.3,029.3,6.2,0000.0,0003.15,0002.07,0001.77
2023-11-15 02:18:00,SystemResetWarning,0831.3,5.00,000.00,027.9,026.7,000.0,036.3,029.3,6.2,0000.0,0003.29,0002.05,0001.74
2023-11-15 02:19:00,SystemResetWarning,0831.3,5.00,000.00,027.9,026.7,000.0,036.3,029.3,6.1,0000.0,0003.26,0002.02,0001.71
2023-11-15 02:20:00,SystemResetWarning,0831.3,5.00,000.00,027.9,026.7,000.0,036.3,029.4,6.1,0000.0,0003.27,0001.99,0001.66
2023-11-15 02:21:00,SystemResetWarning,0831.3,5.00,000.00,027.9,026.7,000.0,036.3,029.3,6.1,0000.0,0003.25,0001.97,0001.64
2023-11-15 02:22:00,SystemResetWarning,0831.3,5.01,000.00,027.9,026.7,000.0,036.3,029.3,6.1,0000.0,0003.29,0001.98,0001.63
2023-11-15 02:23:00,SystemResetWarning,0831.3,5.00,000.00,027.9,026.8,000.0,036.3,029.3,6.1,0000.0,0003.18,0001.95,0001.59
2023-11-15 02:24:00,SystemResetWarning,0831.3,4.99,000.00,027.9,026.8,000.0,036.3,029.3,6.1,0000.0,0003.11,0001.91,0001.56
2023-11-15 02:25:00,SystemResetWarning,0831.3,5.00,000.00,027.9,026.8,000.0,036.3,029.3,6.1,0000.0,0002.99,0001.89,0001.54
2023-11-15 02:26:00,SystemResetWarning,0831.4,4.99,000.00,027.9,026.8,000.0,036.3,029.4,6.1,0000.0,0003.05,0001.83,0001.51
2023-11-15 02:27:00,SystemResetWarning,0831.4,5.00,000.00,027.9,026.8,000.0,036.3,029.4,6.1,0000.0,0003.45,0001.84,0001.50
2023-11-15 02:28:00,SystemResetWarning,0831.4,5.00,000.00,027.9,026.8,000.0,036.3,029.4,6.1,0000.0,0003.33,0001.84,0001.49
2023-11-15 02:29:00,SystemResetWarning,0831.4,5.00,000.00,028.0,026.9,000.0,036.3,029.4,6.1,0000.0,0003.08,0001.84,0001.50
2023-11-15 02:30:00,SystemResetWarning,0831.4,5.00,000.00,028.0,026.9,000.0,036.3,029.4,6.2,0000.0,0003.10,0001.85,0001.50
2023-11-15 02:31:00,SystemResetWarning,0831.4,5.00,000.00,028.0,026.9,000.0,036.3,029.4,6.2,0000.0,0003.22,0001.89,0001.51
2023-11-15 02:32:00,SystemResetWarning,0831.4,5.00,000.00,028.0,026.9,000.0,036.3,029.4,6.2,0000.0,0003.27,0001.89,0001.49
2023-11-15 02:33:00,SystemResetWarning,0831.5,5.00,000.00,028.0,026.9,000.0,036.3,029.4,6.2,0000.0,0003.19,0001.86,0001.48
2023-11-15 02:34:00,SystemResetWarning,0831.5,5.00,000.00,028.0,027.0,000.0,036.3,029.4,6.2,0000.0,0004.06,0001.86,0001.50
2023-11-15 02:35:00,SystemResetWarning,0831.4,5.01,000.00,028.0,027.0,000.0,036.3,029.4,6.2,0000.0,0005.02,0001.88,0001.51
2023-11-15 02:36:00,SystemResetWarning,0831.5,4.99,000.00,028.0,027.0,000.0,036.3,029.4,6.2,0000.0,0005.00,0001.88,0001.53
2023-11-15 02:37:00,SystemResetWarning,0831.4,4.99,000.00,028.0,027.0,000.0,036.4,029.4,6.3,0000.0,0004.93,0001.92,0001.54
2023-11-15 02:38:00,SystemResetWarning,0831.4,5.00,000.00,028.0,027.0,000.0,036.3,029.4,6.3,0000.0,0004.97,0001.90,0001.55
2023-11-15 02:39:00,SystemResetWarning,0831.4,5.00,000.00,028.0,027.0,000.0,036.4,029.4,6.3,0000.0,0005.40,0001.89,0001.55
2023-11-15 02:40:00,SystemResetWarning,0831.4,5.01,000.00,028.0,027.0,000.0,036.4,029.4,6.4,0000.0,0005.51,0001.93,0001.55
2023-11-15 02:41:00,SystemResetWarning,0831.4,5.00,000.00,028.0,027.0,000.0,036.4,029.4,6.4,0000.0,0005.52,0001.92,0001.56
2023-11-15 02:42:00,SystemResetWarning,0831.5,5.00,000.00,028.0,027.0,000.0,036.4,029.4,6.4,0000.0,0005.44,0001.90,0001.55
2023-11-15 02:43:00,SystemResetWarning,0831.5,5.00,000.00,028.0,026.9,000.0,036.4,029.4,6.4,0000.0,0005.54,0001.89,0001.58
2023-11-15 02:44:00,SystemResetWarning,0831.4,4.99,000.00,028.0,026.9,000.0,036.4,029.4,6.5,0000.0,0005.68,0001.95,0001.61
2023-11-15 02:45:00,SystemResetWarning,0831.5,4.99,000.00,028.0,026.9,000.0,036.4,029.4,6.6,0000.0,0005.07,0001.98,0001.62
2023-11-15 02:46:00,SystemResetWarning,0831.5,5.00,000.00,028.0,026.9,000.0,036.4,029.4,6.7,0000.0,0003.94,0001.99,0001.63
2023-11-15 02:47:00,SystemResetWarning,0831.4,5.00,000.00,028.0,026.8,000.0,036.4,029.3,6.7,0000.0,0003.98,0002.01,0001.64
2023-11-15 02:48:00,SystemResetWarning,0831.4,5.01,000.00,028.0,026.8,000.0,036.4,029.3,6.7,0000.0,0004.02,0002.02,0001.65
2023-11-15 02:49:00,SystemResetWarning,0831.5,5.00,000.00,028.0,026.8,000.0,036.4,029.3,6.7,0000.0,0003.77,0002.05,0001.66
2023-11-15 02:50:00,SystemResetWarning,0831.5,5.00,000.00,028.0,026.8,000.0,036.4,029.3,6.7,0000.0,0004.01,0002.05,0001.67
2023-11-15 02:51:00,SystemResetWarning,0831.4,5.00,000.00,028.0,026.8,000.0,036.4,029.3,6.7,0000.0,0004.57,0001.99,0001.67
2023-11-15 02:52:00,SystemResetWarning,0831.5,5.00,000.00,028.0,026.7,000.0,036.4,029.3,6.7,0000.0,0004.66,0002.03,0001.68
2023-11-15 02:53:00,SystemResetWarning,0831.5,5.00,000.00,027.9,026.7,000.0,036.4,029.3,6.8,0000.0,0004.75,0002.08,0001.71
2023-11-15 02:54:00,SystemResetWarning,0831.4,5.00,000.00,027.9,026.7,000.0,036.4,029.3,6.9,0000.0,0004.43,0002.06,0001.71
2023-11-15 02:55:00,SystemResetWarning,0831.4,5.00,000.00,027.9,026.7,000.0,036.4,029.2,6.9,0000.0,0004.31,0002.03,0001.70
2023-11-15 02:56:00,SystemResetWarning,0831.5,5.01,000.00,027.9,026.7,000.0,036.4,029.2,7.0,0000.0,0004.45,0002.03,0001.70
2023-11-15 02:57:00,SystemResetWarning,0831.5,5.00,000.00,027.9,026.7,000.0,036.3,029.2,7.1,0000.0,0004.46,0002.03,0001.70
2023-11-15 02:58:00,SystemResetWarning,0831.5,5.00,000.00,027.9,026.6,000.0,036.3,029.2,7.2,0000.0,0004.43,0002.03,0001.71
2023-11-15 02:59:00,SystemResetWarning,0831.5,5.01,000.00,027.9,026.6,000.0,036.3,029.2,7.3,0000.0,0004.42,0002.04,0001.72
